Home > Time Zones > World Clock > Weather > Spain > Jaén > Past weeks

Flag for Spain Weather past 2 weeks in Jaén, Spain

Now
64 °F

Passing clouds.


Feels Like: 64 °F
Forecast: 51 / 81 °F
Wind: 6 mph from Southwest

Location: Granada / Aeropuerto

Current Time: Sep 24, 2014 at 2:42:00 AM

Latest Report: Sep 24, 2014 at 2:00 AM


Visibility: N/A

Pressure: 30.04 "Hg

Humidity: 78%

Dew point: 57 °F

Location of JaénLocation

Historic Weather in Jaén — Graph

°F

Jaén temperature yesterday

Maximum temperature yesterday: 79 °F (at 2:30 PM)
Minimum temperature yesterday: 54 °F (at 8:00 AM)
Average temperature yesterday: 66 °F

Past Weeks' High & Low Weather Summary

 TemperatureHumidityPressure
High91 °F (Sep 9, 2:30 PM)100% (Sep 18, 8:30 AM)30.15 "Hg (Sep 18, 8:30 AM)
Low52 °F (Sep 16, 6:00 AM)16% (Sep 10, 4:00 PM)29.83 "Hg (Sep 16, 3:30 PM)
Average72 °F55%30.01 "Hg
* Reported Sep 9 6:00 AM — Sep 24 1:30 AM, Jaén, Weather by CustomWeather, © 2014

Note: Actual official high and low records may vary slightly from our data, if they occured in-between our weather recording intervals... More about our weather records

Advertising

Jaén weather history for previous 24 hours

 ConditionsComfort  
Time TempWeatherWind HumidityBarometerVisibility
1:30 AM
Sep 24
64 °FPassing clouds.5 mph73%30.04 "HgN/A
1:00 AM64 °FPartly cloudy.2 mph73%30.04 "HgN/A
12:30 AM64 °FPassing clouds.No wind73%30.04 "HgN/A
12:00 AM66 °FPassing clouds.8 mph68%30.04 "HgN/A
11:30 PM
Sep 23
66 °FPassing clouds.6 mph68%30.04 "HgN/A
11:00 PM66 °FPassing clouds.7 mph64%30.01 "HgN/A
10:30 PM66 °FPassing clouds.7 mph64%30.01 "HgN/A
10:00 PM66 °FPassing clouds.7 mph64%30.01 "HgN/A
9:30 PM66 °FPassing clouds.3 mph64%30.01 "HgN/A
9:00 PM68 °FPassing clouds.2 mph56%29.98 "HgN/A
8:30 PM70 °FPassing clouds.3 mph53%29.98 "HgN/A
8:00 PM72 °FPassing clouds.5 mph50%29.98 "HgN/A
7:30 PM75 °FPassing clouds.6 mph44%29.98 "HgN/A
7:00 PM75 °FPassing clouds.9 mph44%29.98 "HgN/A
6:30 PM75 °FScattered clouds.10 mph44%29.98 "HgN/A
6:00 PM75 °FScattered clouds.12 mph41%29.98 "HgN/A
5:30 PM77 °FScattered clouds.8 mph39%29.98 "HgN/A
5:00 PM79 °FScattered clouds.8 mph37%29.98 "HgN/A
4:00 PM77 °FScattered clouds.9 mph39%29.98 "HgN/A
3:30 PM77 °FScattered clouds.10 mph39%29.98 "HgN/A
3:00 PM79 °FScattered clouds.7 mph37%30.01 "HgN/A
2:30 PM79 °FPassing clouds.6 mph37%30.01 "HgN/A
2:00 PM75 °FPassing clouds.5 mph41%30.01 "HgN/A
1:30 PM75 °FPassing clouds.5 mph41%30.04 "HgN/A
1:00 PM73 °FPassing clouds.5 mph47%30.04 "HgN/A
12:30 PM72 °FPassing clouds.3 mph50%30.04 "HgN/A
12:00 PM70 °FScattered clouds.2 mph53%30.07 "HgN/A
11:30 AM66 °FScattered clouds.3 mph73%30.07 "HgN/A
11:00 AM64 °FScattered clouds.2 mph78%30.07 "HgN/A
10:30 AM64 °FScattered clouds.2 mph78%30.04 "HgN/A
10:00 AM61 °FPassing clouds.1 mph83%30.04 "HgN/A
9:30 AM59 °FPassing clouds.2 mph88%30.04 "HgN/A
9:00 AM59 °FPassing clouds.No wind88%30.04 "HgN/A
8:30 AM55 °FPassing clouds.No wind94%30.04 "HgN/A
8:00 AM54 °FPassing clouds.2 mph94%30.04 "HgN/A
7:30 AM55 °FPassing clouds.No wind94%30.04 "HgN/A
7:00 AM55 °FPassing clouds.No wind94%30.04 "HgN/A
6:30 AM57 °FPassing clouds.No wind94%30.01 "HgN/A
6:00 AM57 °FPassing clouds.No wind88%30.01 "HgN/A
5:30 AM57 °FPassing clouds.2 mph94%30.01 "HgN/A
5:00 AM57 °FClear.2 mph88%30.01 "Hg10 mi
4:30 AM57 °FPassing clouds.2 mph94%30.04 "HgN/A
4:00 AM57 °FPassing clouds.No wind94%30.04 "HgN/A
3:30 AM59 °FPassing clouds.1 mph88%30.04 "HgN/A
3:00 AM61 °FOvercast.2 mph83%30.04 "HgN/A
2:30 AM61 °FPassing clouds.6 mph88%30.04 "HgN/A
2:00 AM61 °FPassing clouds.7 mph83%30.04 "HgN/A
Weather by CustomWeather, © 2014

See weather overviewHow to use our weather pages